Time,TemperatureF,DewpointF,PressureIn,WindDirection,WindDirectionDegrees,WindSpeedMPH,WindSpeedGustMPH,Humidity,HourlyPrecipIn,Conditions,Clouds,dailyrainin,SoftwareType,DateUTC
2013-02-09 00:00:00,16.5,14.8,30.41,West,260,0.0,0.0,93,0.00,,---,0.00,VWS V14.01,2013-02-09 06:00:00,
2013-02-09 00:04:00,16.4,14.7,30.41,West,259,0.0,0.0,93,0.00,,---,0.00,VWS V14.01,2013-02-09 06:04:00,
2013-02-09 00:09:00,16.3,14.6,30.41,West,260,0.0,0.0,93,0.00,,---,0.00,VWS V14.01,2013-02-09 06:09:00,
2013-02-09 00:14:00,16.2,14.5,30.41,West,259,0.0,0.0,93,0.00,,---,0.00,VWS V14.01,2013-02-09 06:14:00,
2013-02-09 00:19:00,16.2,14.5,30.41,West,259,0.0,0.0,93,0.00,,---,0.00,VWS V14.01,2013-02-09 06:19:00,
2013-02-09 00:24:00,16.2,14.5,30.41,West,260,0.0,0.0,93,0.00,,---,0.00,VWS V14.01,2013-02-09 06:24:00,
2013-02-09 00:29:00,16.1,14.4,30.41,West,260,0.0,0.0,93,0.00,,---,0.00,VWS V14.01,2013-02-09 06:29:00,
2013-02-09 00:30:00,16.2,14.5,30.41,West,259,0.0,0.0,93,0.00,,---,0.00,VWS V14.01,2013-02-09 06:30:00,
2013-02-09 00:34:00,15.9,14.2,30.41,West,260,0.0,0.0,93,0.00,,---,0.00,VWS V14.01,2013-02-09 06:34:00,
2013-02-09 00:39:00,15.8,14.1,30.41,West,260,0.0,0.0,93,0.00,,---,0.00,VWS V14.01,2013-02-09 06:39:00,
2013-02-09 00:44:00,15.8,14.1,30.41,West,260,0.0,0.0,93,0.00,,---,0.00,VWS V14.01,2013-02-09 06:44:00,
2013-02-09 00:49:00,15.7,14.3,30.41,SSW,213,0.0,1.0,94,0.00,,---,0.00,VWS V14.01,2013-02-09 06:49:00,
2013-02-09 00:54:00,15.8,14.4,30.41,SSW,212,0.0,1.0,94,0.00,,---,0.00,VWS V14.01,2013-02-09 06:54:00,
2013-02-09 00:59:00,15.6,13.9,30.40,SSW,212,0.0,0.0,93,0.00,,---,0.00,VWS V14.01,2013-02-09 06:59:00,
2013-02-09 01:00:00,15.7,14.3,30.40,SSW,212,0.0,1.0,94,0.00,,---,0.00,VWS V14.01,2013-02-09 07:00:00,
2013-02-09 01:04:00,15.4,13.7,30.40,SSW,212,0.0,1.0,93,0.00,,---,0.00,VWS V14.01,2013-02-09 07:04:00,
2013-02-09 01:09:00,15.2,13.5,30.40,SSW,212,0.0,1.0,93,0.00,,---,0.00,VWS V14.01,2013-02-09 07:09:00,
2013-02-09 01:14:00,15.6,14.2,30.41,WSW,249,0.0,1.0,94,0.00,,---,0.00,VWS V14.01,2013-02-09 07:14:00,
2013-02-09 01:19:00,16.0,14.6,30.41,West,259,0.0,1.0,94,0.00,,---,0.00,VWS V14.01,2013-02-09 07:19:00,
2013-02-09 01:24:00,15.9,14.5,30.41,West,259,0.0,1.0,94,0.00,,---,0.00,VWS V14.01,2013-02-09 07:24:00,
2013-02-09 01:29:00,15.6,13.9,30.41,WSW,255,0.0,0.0,93,0.00,,---,0.00,VWS V14.01,2013-02-09 07:29:00,
2013-02-09 01:30:00,15.6,13.9,30.41,WSW,256,0.0,1.0,93,0.00,,---,0.00,VWS V14.01,2013-02-09 07:30:00,
2013-02-09 01:34:00,15.2,13.5,30.41,WSW,256,0.0,0.0,93,0.00,,---,0.00,VWS V14.01,2013-02-09 07:34:00,
2013-02-09 01:39:00,14.9,13.2,30.41,WSW,256,0.0,0.0,93,0.00,,---,0.00,VWS V14.01,2013-02-09 07:39:00,
2013-02-09 01:44:00,14.5,12.9,30.42,WSW,255,0.0,0.0,93,0.00,,---,0.00,VWS V14.01,2013-02-09 07:44:00,
2013-02-09 01:49:00,14.4,12.8,30.42,WSW,256,0.0,0.0,93,0.00,,---,0.00,VWS V14.01,2013-02-09 07:49:00,
2013-02-09 01:54:00,14.6,13.2,30.42,WSW,255,0.0,0.0,94,0.00,,---,0.00,VWS V14.01,2013-02-09 07:54:00,
2013-02-09 01:59:00,14.6,13.2,30.42,WSW,256,0.0,0.0,94,0.00,,---,0.00,VWS V14.01,2013-02-09 07:59:00,
2013-02-09 02:00:00,14.6,13.2,30.42,WSW,255,0.0,0.0,94,0.00,,---,0.00,VWS V14.01,2013-02-09 08:00:00,
2013-02-09 02:04:00,14.8,13.4,30.42,WSW,256,0.0,0.0,94,0.00,,---,0.00,VWS V14.01,2013-02-09 08:04:00,
2013-02-09 02:09:00,14.9,13.5,30.43,WSW,256,0.0,0.0,94,0.00,,---,0.00,VWS V14.01,2013-02-09 08:09:00,
2013-02-09 02:14:00,14.9,13.5,30.43,WSW,256,0.0,0.0,94,0.00,,---,0.00,VWS V14.01,2013-02-09 08:14:00,
2013-02-09 02:19:00,14.8,13.4,30.43,WSW,256,0.0,1.0,94,0.00,,---,0.00,VWS V14.01,2013-02-09 08:19:00,
2013-02-09 02:24:00,14.7,13.3,30.43,WSW,256,0.0,1.0,94,0.00,,---,0.00,VWS V14.01,2013-02-09 08:24:00,
2013-02-09 02:29:00,14.4,12.8,30.43,WSW,256,0.0,0.0,93,0.00,,---,0.00,VWS V14.01,2013-02-09 08:29:00,
2013-02-09 02:30:00,14.4,12.8,30.43,WSW,256,0.0,1.0,93,0.00,,---,0.00,VWS V14.01,2013-02-09 08:30:00,
2013-02-09 02:34:00,14.2,12.6,30.43,WSW,256,0.0,0.0,93,0.00,,---,0.00,VWS V14.01,2013-02-09 08:34:00,
2013-02-09 02:39:00,14.3,12.9,30.43,West,274,0.0,1.0,94,0.00,,---,0.00,VWS V14.01,2013-02-09 08:39:00,
2013-02-09 02:44:00,14.4,13.0,30.44,West,274,0.0,1.0,94,0.00,,---,0.00,VWS V14.01,2013-02-09 08:44:00,
2013-02-09 02:49:00,14.5,13.1,30.43,West,274,0.0,1.0,94,0.00,,---,0.00,VWS V14.01,2013-02-09 08:49:00,
2013-02-09 02:54:00,14.3,12.9,30.44,West,274,0.0,1.0,94,0.00,,---,0.00,VWS V14.01,2013-02-09 08:54:00,
2013-02-09 02:59:00,14.2,12.8,30.44,West,274,0.0,0.0,94,0.00,,---,0.00,VWS V14.01,2013-02-09 08:59:00,
2013-02-09 03:00:00,14.2,12.6,30.44,West,274,0.0,1.0,93,0.00,,---,0.00,VWS V14.01,2013-02-09 09:00:00,
2013-02-09 03:04:00,14.2,12.8,30.44,West,274,0.0,0.0,94,0.00,,---,0.00,VWS V14.01,2013-02-09 09:04:00,
2013-02-09 03:09:00,14.0,12.4,30.44,West,274,0.0,0.0,93,0.00,,---,0.00,VWS V14.01,2013-02-09 09:09:00,
2013-02-09 03:14:00,13.6,12.0,30.44,West,274,0.0,0.0,93,0.00,,---,0.00,VWS V14.01,2013-02-09 09:14:00,
2013-02-09 03:19:00,13.1,11.5,30.44,West,274,0.0,0.0,93,0.00,,---,0.00,VWS V14.01,2013-02-09 09:19:00,
2013-02-09 03:24:00,13.3,11.9,30.44,West,274,0.0,0.0,94,0.00,,---,0.00,VWS V14.01,2013-02-09 09:24:00,
2013-02-09 03:29:00,13.2,11.8,30.44,West,274,0.0,0.0,94,0.00,,---,0.00,VWS V14.01,2013-02-09 09:29:00,
2013-02-09 03:30:00,13.2,11.8,30.44,West,274,0.0,0.0,94,0.00,,---,0.00,VWS V14.01,2013-02-09 09:30:00,
2013-02-09 03:34:00,13.0,11.6,30.44,West,274,0.0,0.0,94,0.00,,---,0.00,VWS V14.01,2013-02-09 09:34:00,
2013-02-09 03:39:00,12.6,11.0,30.45,West,274,0.0,0.0,93,0.00,,---,0.00,VWS V14.01,2013-02-09 09:39:00,
2013-02-09 03:44:00,12.2,10.6,30.45,West,274,0.0,0.0,93,0.00,,---,0.00,VWS V14.01,2013-02-09 09:44:00,
2013-02-09 03:49:00,11.9,10.3,30.45,West,274,0.0,0.0,93,0.00,,---,0.00,VWS V14.01,2013-02-09 09:49:00,
2013-02-09 03:54:00,11.7,10.1,30.45,West,274,0.0,0.0,93,0.00,,---,0.00,VWS V14.01,2013-02-09 09:54:00,
2013-02-09 03:59:00,11.6,10.2,30.45,West,274,0.0,0.0,94,0.00,,---,0.00,VWS V14.01,2013-02-09 09:59:00,
2013-02-09 04:00:00,11.6,10.2,30.45,West,274,0.0,0.0,94,0.00,,---,0.00,VWS V14.01,2013-02-09 10:00:00,
2013-02-09 04:04:00,11.5,10.1,30.45,West,274,0.0,0.0,94,0.00,,---,0.00,VWS V14.01,2013-02-09 10:04:00,
2013-02-09 04:09:00,11.4,10.0,30.45,West,274,0.0,0.0,94,0.00,,---,0.00,VWS V14.01,2013-02-09 10:09:00,
2013-02-09 04:14:00,11.4,10.0,30.45,West,274,0.0,0.0,94,0.00,,---,0.00,VWS V14.01,2013-02-09 10:14:00,
2013-02-09 04:19:00,12.2,11.0,30.45,West,274,0.0,0.0,95,0.00,,---,0.00,VWS V14.01,2013-02-09 10:19:00,
2013-02-09 04:24:00,12.4,11.2,30.45,West,274,0.0,0.0,95,0.00,,---,0.00,VWS V14.01,2013-02-09 10:24:00,
2013-02-09 04:29:00,12.2,10.8,30.45,West,274,0.0,0.0,94,0.00,,---,0.00,VWS V14.01,2013-02-09 10:29:00,
2013-02-09 04:30:00,12.3,10.9,30.45,West,274,0.0,0.0,94,0.00,,---,0.00,VWS V14.01,2013-02-09 10:30:00,
2013-02-09 04:34:00,12.4,11.0,30.44,East,83,0.0,1.0,94,0.00,,---,0.00,VWS V14.01,2013-02-09 10:34:00,
2013-02-09 04:39:00,12.6,11.2,30.44,East,84,0.0,1.0,94,0.00,,---,0.00,VWS V14.01,2013-02-09 10:39:00,
2013-02-09 04:44:00,12.8,11.4,30.44,ENE,60,0.0,1.0,94,0.00,,---,0.00,VWS V14.01,2013-02-09 10:44:00,
2013-02-09 04:49:00,12.8,11.4,30.44,ENE,60,0.0,1.0,94,0.00,,---,0.00,VWS V14.01,2013-02-09 10:49:00,
2013-02-09 04:54:00,12.6,11.2,30.44,ENE,59,0.0,1.0,94,0.00,,---,0.00,VWS V14.01,2013-02-09 10:54:00,
2013-02-09 04:59:00,12.4,10.8,30.44,ENE,60,0.0,0.0,93,0.00,,---,0.00,VWS V14.01,2013-02-09 10:59:00,
2013-02-09 05:00:00,12.4,10.8,30.44,ENE,60,0.0,1.0,93,0.00,,---,0.00,VWS V14.01,2013-02-09 11:00:00,
2013-02-09 05:04:00,12.2,10.6,30.45,ENE,60,0.0,0.0,93,0.00,,---,0.00,VWS V14.01,2013-02-09 11:04:00,
2013-02-09 05:09:00,12.2,10.8,30.45,WNW,292,0.0,0.0,94,0.00,,---,0.00,VWS V14.01,2013-02-09 11:09:00,
2013-02-09 05:14:00,12.3,10.9,30.46,WNW,292,0.0,0.0,94,0.00,,---,0.00,VWS V14.01,2013-02-09 11:14:00,
2013-02-09 05:19:00,12.4,11.0,30.46,WNW,292,0.0,0.0,94,0.00,,---,0.00,VWS V14.01,2013-02-09 11:19:00,
2013-02-09 05:24:00,12.2,10.8,30.45,WNW,292,0.0,0.0,94,0.00,,---,0.00,VWS V14.01,2013-02-09 11:24:00,
2013-02-09 05:29:00,11.8,10.2,30.45,WNW,293,0.0,0.0,93,0.00,,---,0.00,VWS V14.01,2013-02-09 11:29:00,
2013-02-09 05:30:00,11.8,10.2,30.45,WNW,293,0.0,0.0,93,0.00,,---,0.00,VWS V14.01,2013-02-09 11:30:00,
2013-02-09 05:34:00,11.7,10.1,30.46,WNW,293,0.0,0.0,93,0.00,,---,0.00,VWS V14.01,2013-02-09 11:34:00,
2013-02-09 05:39:00,11.5,9.9,30.46,WNW,292,0.0,0.0,93,0.00,,---,0.00,VWS V14.01,2013-02-09 11:39:00,
2013-02-09 05:44:00,11.0,9.4,30.46,WNW,292,0.0,0.0,93,0.00,,---,0.00,VWS V14.01,2013-02-09 11:44:00,
2013-02-09 05:49:00,10.7,9.1,30.46,WNW,293,0.0,0.0,93,0.00,,---,0.00,VWS V14.01,2013-02-09 11:49:00,
2013-02-09 05:54:00,10.8,9.4,30.47,WNW,292,0.0,0.0,94,0.00,,---,0.00,VWS V14.01,2013-02-09 11:54:00,
2013-02-09 05:59:00,10.7,9.3,30.47,WNW,292,0.0,0.0,94,0.00,,---,0.00,VWS V14.01,2013-02-09 11:59:00,
2013-02-09 06:00:00,10.7,9.1,30.47,WNW,292,0.0,0.0,93,0.00,,---,0.00,VWS V14.01,2013-02-09 12:00:00,
2013-02-09 06:04:00,10.7,9.3,30.47,WNW,292,0.0,0.0,94,0.00,,---,0.00,VWS V14.01,2013-02-09 12:04:00,
2013-02-09 06:09:00,10.6,9.0,30.48,WNW,292,0.0,0.0,93,0.00,,---,0.00,VWS V14.01,2013-02-09 12:09:00,
2013-02-09 06:14:00,10.3,8.7,30.48,WNW,293,0.0,0.0,93,0.00,,---,0.00,VWS V14.01,2013-02-09 12:14:00,
2013-02-09 06:19:00,9.9,8.3,30.48,WNW,292,0.0,0.0,93,0.00,,---,0.00,VWS V14.01,2013-02-09 12:19:00,
2013-02-09 06:24:00,9.5,7.7,30.48,WNW,293,0.0,0.0,92,0.00,,---,0.00,VWS V14.01,2013-02-09 12:24:00,
2013-02-09 06:29:00,9.5,7.9,30.48,WNW,292,0.0,0.0,93,0.00,,---,0.00,VWS V14.01,2013-02-09 12:29:00,
2013-02-09 06:30:00,9.4,7.8,30.48,WNW,292,0.0,0.0,93,0.00,,---,0.00,VWS V14.01,2013-02-09 12:30:00,
2013-02-09 06:35:00,9.6,8.2,30.48,WNW,293,0.0,0.0,94,0.00,,---,0.00,VWS V14.01,2013-02-09 12:35:00,
2013-02-09 06:40:00,9.7,8.3,30.48,WNW,293,0.0,0.0,94,0.00,,---,0.00,VWS V14.01,2013-02-09 12:40:00,
2013-02-09 06:45:00,9.5,7.9,30.48,WNW,293,0.0,0.0,93,0.00,,---,0.00,VWS V14.01,2013-02-09 12:45:00,
2013-02-09 06:50:00,9.6,8.0,30.48,WNW,292,0.0,0.0,93,0.00,,---,0.00,VWS V14.01,2013-02-09 12:50:00,
2013-02-09 06:55:00,9.9,8.5,30.48,WNW,293,0.0,0.0,94,0.00,,---,0.00,VWS V14.01,2013-02-09 12:55:00,
2013-02-09 07:00:00,10.0,8.6,30.48,WNW,292,0.0,0.0,94,0.00,,---,0.00,VWS V14.01,2013-02-09 13:00:00,
2013-02-09 07:05:00,10.0,8.4,30.49,WNW,293,0.0,0.0,93,0.00,,---,0.00,VWS V14.01,2013-02-09 13:05:00,
2013-02-09 07:10:00,10.1,8.7,30.49,WNW,293,0.0,0.0,94,0.00,,---,0.00,VWS V14.01,2013-02-09 13:10:00,
2013-02-09 07:15:00,10.3,8.9,30.49,WNW,293,0.0,0.0,94,0.00,,---,0.00,VWS V14.01,2013-02-09 13:15:00,
2013-02-09 07:20:00,10.7,9.3,30.50,WNW,292,0.0,0.0,94,0.00,,---,0.00,VWS V14.01,2013-02-09 13:20:00,
2013-02-09 07:25:00,11.0,9.6,30.50,WNW,292,0.0,0.0,94,0.00,,---,0.00,VWS V14.01,2013-02-09 13:25:00,
2013-02-09 07:30:00,11.6,10.2,30.50,WNW,293,0.0,0.0,94,0.00,,---,0.00,VWS V14.01,2013-02-09 13:30:00,
2013-02-09 07:35:00,12.4,11.2,30.50,WNW,290,0.0,1.0,95,0.00,,---,0.00,VWS V14.01,2013-02-09 13:35:00,
2013-02-09 07:40:00,13.2,12.0,30.50,West,271,0.0,1.0,95,0.00,,---,0.00,VWS V14.01,2013-02-09 13:40:00,
2013-02-09 07:45:00,13.9,12.7,30.51,West,266,0.0,1.0,95,0.00,,---,0.00,VWS V14.01,2013-02-09 13:45:00,
2013-02-09 07:50:00,14.6,13.4,30.51,WNW,285,0.0,1.0,95,0.00,,---,0.00,VWS V14.01,2013-02-09 13:50:00,
2013-02-09 07:55:00,15.3,13.9,30.51,NNE,19,0.0,1.0,94,0.00,,---,0.00,VWS V14.01,2013-02-09 13:55:00,
2013-02-09 08:00:00,16.4,15.2,30.50,NNE,19,0.0,0.0,95,0.00,,---,0.00,VWS V14.01,2013-02-09 14:00:00,
2013-02-09 08:05:00,17.2,15.8,30.50,ENE,75,0.0,1.0,94,0.00,,---,0.00,VWS V14.01,2013-02-09 14:05:00,
2013-02-09 08:10:00,17.9,16.5,30.50,NE,54,0.0,1.0,94,0.00,,---,0.00,VWS V14.01,2013-02-09 14:10:00,
2013-02-09 08:15:00,18.8,17.1,30.50,SSE,163,0.0,1.0,93,0.00,,---,0.00,VWS V14.01,2013-02-09 14:15:00,
2013-02-09 08:20:00,19.3,17.4,30.50,East,94,0.0,1.0,92,0.00,,---,0.00,VWS V14.01,2013-02-09 14:20:00,
2013-02-09 08:25:00,19.6,17.4,30.50,East,95,0.0,1.0,91,0.00,,---,0.00,VWS V14.01,2013-02-09 14:25:00,
2013-02-09 08:30:00,20.0,17.5,30.49,North,6,2.0,2.0,90,0.00,,---,0.00,VWS V14.01,2013-02-09 14:30:00,
2013-02-09 08:35:00,20.1,17.4,30.49,NNE,13,1.0,3.0,89,0.00,,---,0.00,VWS V14.01,2013-02-09 14:35:00,
2013-02-09 08:40:00,20.6,17.9,30.49,East,93,0.0,3.0,89,0.00,,---,0.00,VWS V14.01,2013-02-09 14:40:00,
2013-02-09 08:45:00,21.6,18.9,30.49,East,93,0.0,3.0,89,0.00,,---,0.00,VWS V14.01,2013-02-09 14:45:00,
2013-02-09 08:50:00,22.0,18.5,30.49,East,95,1.0,3.0,86,0.00,,---,0.00,VWS V14.01,2013-02-09 14:50:00,
2013-02-09 08:55:00,22.2,18.4,30.49,ENE,70,0.0,3.0,85,0.00,,---,0.00,VWS V14.01,2013-02-09 14:55:00,
2013-02-09 09:00:00,22.6,18.8,30.49,NNW,336,1.0,2.0,85,0.00,,---,0.00,VWS V14.01,2013-02-09 15:00:00,
2013-02-09 09:05:00,23.0,19.5,30.49,East,94,1.0,2.0,86,0.00,,---,0.00,VWS V14.01,2013-02-09 15:05:00,
2013-02-09 09:10:00,23.7,19.9,30.50,ESE,107,2.0,2.0,85,0.00,,---,0.00,VWS V14.01,2013-02-09 15:10:00,
2013-02-09 09:15:00,24.1,19.4,30.50,North,1,0.0,2.0,82,0.00,,---,0.00,VWS V14.01,2013-02-09 15:15:00,
2013-02-09 09:20:00,24.4,19.7,30.50,NNE,22,3.0,3.0,82,0.00,,---,0.00,VWS V14.01,2013-02-09 15:20:00,
2013-02-09 09:25:00,24.3,19.0,30.50,North,5,0.0,4.0,80,0.00,,---,0.00,VWS V14.01,2013-02-09 15:25:00,
2013-02-09 09:30:00,24.8,19.8,30.50,SE,131,0.0,1.0,81,0.00,,---,0.00,VWS V14.01,2013-02-09 15:30:00,
2013-02-09 09:35:00,25.3,20.0,30.50,West,276,1.0,2.0,80,0.00,,---,0.00,VWS V14.01,2013-02-09 15:35:00,
2013-02-09 09:40:00,25.6,20.0,30.50,WSW,243,0.0,2.0,79,0.00,,---,0.00,VWS V14.01,2013-02-09 15:40:00,
2013-02-09 09:45:00,26.2,20.3,30.50,SSE,156,0.0,2.0,78,0.00,,---,0.00,VWS V14.01,2013-02-09 15:45:00,
2013-02-09 09:50:00,26.8,20.3,30.50,East,82,1.0,2.0,76,0.00,,---,0.00,VWS V14.01,2013-02-09 15:50:00,
2013-02-09 09:55:00,27.1,20.2,30.51,ESE,107,0.0,5.0,75,0.00,,---,0.00,VWS V14.01,2013-02-09 15:55:00,
2013-02-09 10:00:00,27.1,19.9,30.50,ENE,76,1.0,1.0,74,0.00,,---,0.00,VWS V14.01,2013-02-09 16:00:00,
2013-02-09 10:05:00,27.3,20.4,30.50,SSE,152,0.0,4.0,75,0.00,,---,0.00,VWS V14.01,2013-02-09 16:05:00,
2013-02-09 10:10:00,27.5,20.3,30.49,ESE,120,1.0,4.0,74,0.00,,---,0.00,VWS V14.01,2013-02-09 16:10:00,
2013-02-09 10:15:00,27.6,20.1,30.49,East,82,1.0,5.0,73,0.00,,---,0.00,VWS V14.01,2013-02-09 16:15:00,
2013-02-09 10:20:00,27.9,20.7,30.49,SSE,165,3.0,5.0,74,0.00,,---,0.00,VWS V14.01,2013-02-09 16:20:00,
2013-02-09 10:25:00,27.9,20.4,30.49,East,84,2.0,5.0,73,0.00,,---,0.00,VWS V14.01,2013-02-09 16:25:00,
2013-02-09 10:30:00,27.6,20.1,30.49,SSE,158,4.0,5.0,73,0.00,,---,0.00,VWS V14.01,2013-02-09 16:30:00,
2013-02-09 10:35:00,27.7,20.2,30.48,East,86,1.0,5.0,73,0.00,,---,0.00,VWS V14.01,2013-02-09 16:35:00,
2013-02-09 10:40:00,28.2,21.3,30.48,ESE,117,0.0,7.0,75,0.00,,---,0.00,VWS V14.01,2013-02-09 16:40:00,
2013-02-09 10:45:00,28.5,20.6,30.48,WSW,255,4.0,7.0,72,0.00,,---,0.00,VWS V14.01,2013-02-09 16:45:00,
2013-02-09 10:50:00,28.4,21.5,30.48,ESE,109,0.0,7.0,75,0.00,,---,0.00,VWS V14.01,2013-02-09 16:50:00,
2013-02-09 10:55:00,29.0,20.8,30.48,WSW,240,2.0,7.0,71,0.00,,---,0.00,VWS V14.01,2013-02-09 16:55:00,
2013-02-09 11:00:00,29.3,20.4,30.48,WSW,250,4.0,4.0,69,0.00,,---,0.00,VWS V14.01,2013-02-09 17:00:00,
2013-02-09 11:05:00,29.4,20.8,30.49,SSW,211,2.0,4.0,70,0.00,,---,0.00,VWS V14.01,2013-02-09 17:05:00,
2013-02-09 11:10:00,29.2,20.3,30.48,SSW,197,3.0,7.0,69,0.00,,---,0.00,VWS V14.01,2013-02-09 17:10:00,
2013-02-09 11:15:00,29.2,19.6,30.48,WNW,301,1.0,7.0,67,0.00,,---,0.00,VWS V14.01,2013-02-09 17:15:00,
2013-02-09 11:20:00,29.4,20.5,30.48,NW,321,1.0,7.0,69,0.00,,---,0.00,VWS V14.01,2013-02-09 17:20:00,
2013-02-09 11:25:00,30.0,20.7,30.48,ESE,122,4.0,7.0,68,0.00,,---,0.00,VWS V14.01,2013-02-09 17:25:00,
2013-02-09 11:30:00,29.9,19.6,30.48,SW,217,1.0,4.0,65,0.00,,---,0.00,VWS V14.01,2013-02-09 17:30:00,
2013-02-09 11:35:00,29.7,19.8,30.47,WSW,245,0.0,4.0,66,0.00,,---,0.00,VWS V14.01,2013-02-09 17:35:00,
2013-02-09 11:40:00,29.8,20.2,30.47,WSW,250,2.0,6.0,67,0.00,,---,0.00,VWS V14.01,2013-02-09 17:40:00,
2013-02-09 11:46:00,29.7,19.8,30.47,West,274,2.0,6.0,66,0.00,,---,0.00,VWS V14.01,2013-02-09 17:46:00,
2013-02-09 11:51:00,29.7,19.8,30.46,SE,124,3.0,6.0,66,0.00,,---,0.00,VWS V14.01,2013-02-09 17:51:00,
2013-02-09 11:56:00,30.0,20.4,30.46,SSW,203,3.0,6.0,67,0.00,,---,0.00,VWS V14.01,2013-02-09 17:56:00,
2013-02-09 12:00:00,30.0,20.0,30.46,SW,219,1.0,6.0,66,0.00,,---,0.00,VWS V14.01,2013-02-09 18:00:00,
2013-02-09 12:01:00,30.2,20.6,30.46,East,93,4.0,4.0,67,0.00,,---,0.00,VWS V14.01,2013-02-09 18:01:00,
2013-02-09 12:06:00,30.0,20.0,30.45,SSE,157,3.0,5.0,66,0.00,,---,0.00,VWS V14.01,2013-02-09 18:06:00,
2013-02-09 12:11:00,30.3,20.3,30.45,SSW,204,3.0,5.0,66,0.00,,---,0.00,VWS V14.01,2013-02-09 18:11:00,
2013-02-09 12:16:00,30.5,20.5,30.45,SSW,201,2.0,6.0,66,0.00,,---,0.00,VWS V14.01,2013-02-09 18:16:00,
2013-02-09 12:21:00,30.5,20.1,30.45,SSW,208,3.0,6.0,65,0.00,,---,0.00,VWS V14.01,2013-02-09 18:21:00,
2013-02-09 12:26:00,30.5,20.1,30.45,East,96,1.0,6.0,65,0.00,,---,0.00,VWS V14.01,2013-02-09 18:26:00,
2013-02-09 12:30:00,30.5,20.5,30.45,SSW,205,3.0,6.0,66,0.00,,---,0.00,VWS V14.01,2013-02-09 18:30:00,
2013-02-09 12:31:00,30.7,21.1,30.45,WSW,248,1.0,4.0,67,0.00,,---,0.00,VWS V14.01,2013-02-09 18:31:00,
2013-02-09 12:36:00,30.9,21.2,30.45,SSW,198,3.0,4.0,67,0.00,,---,0.00,VWS V14.01,2013-02-09 18:36:00,
2013-02-09 12:41:00,31.3,22.0,30.45,NNE,27,2.0,4.0,68,0.00,,---,0.00,VWS V14.01,2013-02-09 18:41:00,
2013-02-09 12:46:00,31.3,21.6,30.45,SE,141,3.0,6.0,67,0.00,,---,0.00,VWS V14.01,2013-02-09 18:46:00,
2013-02-09 12:51:00,30.9,21.2,30.45,SW,221,2.0,6.0,67,0.00,,---,0.00,VWS V14.01,2013-02-09 18:51:00,
2013-02-09 12:56:00,30.8,21.5,30.45,SSW,207,3.0,6.0,68,0.00,,---,0.00,VWS V14.01,2013-02-09 18:56:00,
2013-02-09 13:00:00,30.8,21.1,30.45,WSW,238,2.0,6.0,67,0.00,,---,0.00,VWS V14.01,2013-02-09 19:00:00,
2013-02-09 13:01:00,30.8,22.2,30.44,SSW,207,4.0,4.0,70,0.00,,---,0.00,VWS V14.01,2013-02-09 19:01:00,
2013-02-09 13:06:00,30.9,21.9,30.44,ENE,67,2.0,4.0,69,0.00,,---,0.00,VWS V14.01,2013-02-09 19:06:00,
2013-02-09 13:11:00,31.4,22.1,30.44,SSW,193,3.0,5.0,68,0.00,,---,0.00,VWS V14.01,2013-02-09 19:11:00,
2013-02-09 13:16:00,31.5,21.8,30.44,ESE,104,2.0,5.0,67,0.00,,---,0.00,VWS V14.01,2013-02-09 19:16:00,
2013-02-09 13:21:00,31.4,21.4,30.43,SE,141,2.0,6.0,66,0.00,,---,0.00,VWS V14.01,2013-02-09 19:21:00,
2013-02-09 13:26:00,31.6,21.6,30.43,ESE,111,1.0,6.0,66,0.00,,---,0.00,VWS V14.01,2013-02-09 19:26:00,
2013-02-09 13:30:00,31.7,21.7,30.43,WSW,257,1.0,6.0,66,0.00,,---,0.00,VWS V14.01,2013-02-09 19:30:00,
2013-02-09 13:31:00,31.6,21.9,30.43,ENE,65,3.0,3.0,67,0.00,,---,0.00,VWS V14.01,2013-02-09 19:31:00,
2013-02-09 13:36:00,31.7,21.7,30.43,SW,233,4.0,7.0,66,0.00,,---,0.00,VWS V14.01,2013-02-09 19:36:00,
2013-02-09 13:41:00,31.6,21.6,30.43,SSE,163,2.0,7.0,66,0.00,,---,0.00,VWS V14.01,2013-02-09 19:41:00,
2013-02-09 13:46:00,31.6,21.6,30.43,ESE,118,0.0,7.0,66,0.00,,---,0.00,VWS V14.01,2013-02-09 19:46:00,
2013-02-09 13:51:00,31.9,21.5,30.43,SW,222,4.0,7.0,65,0.00,,---,0.00,VWS V14.01,2013-02-09 19:51:00,
2013-02-09 13:56:00,31.8,21.4,30.43,West,271,2.0,7.0,65,0.00,,---,0.00,VWS V14.01,2013-02-09 19:56:00,
2013-02-09 14:00:00,31.7,21.3,30.43,SW,226,2.0,7.0,65,0.00,,---,0.00,VWS V14.01,2013-02-09 20:00:00,
2013-02-09 14:01:00,31.8,22.5,30.43,SW,217,3.0,3.0,68,0.00,,---,0.00,VWS V14.01,2013-02-09 20:01:00,
2013-02-09 14:06:00,32.3,22.2,30.42,SE,130,7.0,7.0,66,0.00,,---,0.00,VWS V14.01,2013-02-09 20:06:00,
2013-02-09 14:11:00,32.2,21.4,30.42,SSE,167,3.0,7.0,64,0.00,,---,0.00,VWS V14.01,2013-02-09 20:11:00,
2013-02-09 14:16:00,32.5,21.7,30.42,SSW,207,2.0,7.0,64,0.00,,---,0.00,VWS V14.01,2013-02-09 20:16:00,
2013-02-09 14:21:00,32.7,21.9,30.41,SSE,161,1.0,7.0,64,0.00,,---,0.00,VWS V14.01,2013-02-09 20:21:00,
2013-02-09 14:26:00,32.3,20.4,30.41,ESE,105,3.0,7.0,61,0.00,,---,0.00,VWS V14.01,2013-02-09 20:26:00,
2013-02-09 14:30:00,31.8,19.9,30.41,ESE,108,2.0,7.0,61,0.00,,---,0.00,VWS V14.01,2013-02-09 20:30:00,
2013-02-09 14:31:00,31.8,20.7,30.41,South,172,5.0,5.0,63,0.00,,---,0.00,VWS V14.01,2013-02-09 20:31:00,
2013-02-09 14:36:00,31.9,20.4,30.41,SSW,204,0.0,6.0,62,0.00,,---,0.00,VWS V14.01,2013-02-09 20:36:00,
2013-02-09 14:41:00,31.9,20.8,30.41,SSW,200,5.0,7.0,63,0.00,,---,0.00,VWS V14.01,2013-02-09 20:41:00,
2013-02-09 14:46:00,32.0,20.9,30.41,South,169,3.0,7.0,63,0.00,,---,0.00,VWS V14.01,2013-02-09 20:46:00,
2013-02-09 14:51:00,31.9,21.5,30.40,SSW,195,1.0,9.0,65,0.00,,---,0.00,VWS V14.01,2013-02-09 20:51:00,
2013-02-09 14:56:00,32.3,21.9,30.41,SSE,167,2.0,9.0,65,0.00,,---,0.00,VWS V14.01,2013-02-09 20:56:00,
2013-02-09 15:00:00,32.4,21.6,30.41,SSE,150,2.0,9.0,64,0.00,,---,0.00,VWS V14.01,2013-02-09 21:00:00,
2013-02-09 15:01:00,32.5,21.3,30.41,SSE,165,3.0,6.0,63,0.00,,---,0.00,VWS V14.01,2013-02-09 21:01:00,
2013-02-09 15:06:00,32.6,21.4,30.41,East,81,4.0,6.0,63,0.00,,---,0.00,VWS V14.01,2013-02-09 21:06:00,
2013-02-09 15:11:00,32.1,20.9,30.40,WSW,239,1.0,6.0,63,0.00,,---,0.00,VWS V14.01,2013-02-09 21:11:00,
2013-02-09 15:16:00,32.0,20.9,30.40,SE,143,1.0,6.0,63,0.00,,---,0.00,VWS V14.01,2013-02-09 21:16:00,
2013-02-09 15:21:00,32.1,21.7,30.40,SE,134,1.0,6.0,65,0.00,,---,0.00,VWS V14.01,2013-02-09 21:21:00,
2013-02-09 15:26:00,32.2,21.4,30.40,SE,132,0.0,6.0,64,0.00,,---,0.00,VWS V14.01,2013-02-09 21:26:00,
2013-02-09 15:30:00,32.3,22.2,30.40,SE,134,0.0,6.0,66,0.00,,---,0.00,VWS V14.01,2013-02-09 21:30:00,
2013-02-09 15:31:00,32.6,22.1,30.40,South,181,2.0,4.0,65,0.00,,---,0.00,VWS V14.01,2013-02-09 21:31:00,
2013-02-09 15:36:00,32.8,22.3,30.40,SSE,163,1.0,4.0,65,0.00,,---,0.00,VWS V14.01,2013-02-09 21:36:00,
2013-02-09 15:41:00,32.7,21.9,30.40,South,191,0.0,4.0,64,0.00,,---,0.00,VWS V14.01,2013-02-09 21:41:00,
2013-02-09 15:46:00,32.7,22.6,30.40,West,274,2.0,4.0,66,0.00,,---,0.00,VWS V14.01,2013-02-09 21:46:00,
2013-02-09 15:51:00,32.4,22.3,30.39,SSE,163,1.0,6.0,66,0.00,,---,0.00,VWS V14.01,2013-02-09 21:51:00,
2013-02-09 15:56:00,32.1,22.8,30.39,SSE,157,0.0,6.0,68,0.00,,---,0.00,VWS V14.01,2013-02-09 21:56:00,
2013-02-09 16:00:00,32.2,22.8,30.38,East,101,1.0,6.0,68,0.00,,---,0.00,VWS V14.01,2013-02-09 22:00:00,
2013-02-09 16:01:00,32.1,22.4,30.38,SE,134,3.0,5.0,67,0.00,,---,0.00,VWS V14.01,2013-02-09 22:01:00,
2013-02-09 16:06:00,31.6,22.3,30.38,SSE,162,1.0,7.0,68,0.00,,---,0.00,VWS V14.01,2013-02-09 22:06:00,
2013-02-09 16:11:00,31.3,22.0,30.38,SE,144,1.0,7.0,68,0.00,,---,0.00,VWS V14.01,2013-02-09 22:11:00,
2013-02-09 16:16:00,31.2,22.2,30.38,ESE,114,0.0,7.0,69,0.00,,---,0.00,VWS V14.01,2013-02-09 22:16:00,
2013-02-09 16:21:00,31.0,22.0,30.39,East,86,1.0,7.0,69,0.00,,---,0.00,VWS V14.01,2013-02-09 22:21:00,
2013-02-09 16:26:00,30.7,21.8,30.39,SSE,166,1.0,7.0,69,0.00,,---,0.00,VWS V14.01,2013-02-09 22:26:00,
2013-02-09 16:30:00,30.5,21.9,30.38,SE,126,2.0,7.0,70,0.00,,---,0.00,VWS V14.01,2013-02-09 22:30:00,
2013-02-09 16:31:00,30.4,21.8,30.39,SSE,148,0.0,3.0,70,0.00,,---,0.00,VWS V14.01,2013-02-09 22:31:00,
2013-02-09 16:36:00,30.3,21.7,30.39,SSE,148,0.0,5.0,70,0.00,,---,0.00,VWS V14.01,2013-02-09 22:36:00,
2013-02-09 16:41:00,30.1,21.5,30.39,ESE,117,2.0,5.0,70,0.00,,---,0.00,VWS V14.01,2013-02-09 22:41:00,
2013-02-09 16:46:00,29.7,21.5,30.39,SSE,148,0.0,5.0,71,0.00,,---,0.00,VWS V14.01,2013-02-09 22:46:00,
2013-02-09 16:51:00,29.3,21.4,30.39,SE,145,1.0,5.0,72,0.00,,---,0.00,VWS V14.01,2013-02-09 22:51:00,
2013-02-09 16:56:00,29.0,21.4,30.39,SSE,148,0.0,5.0,73,0.00,,---,0.00,VWS V14.01,2013-02-09 22:56:00,
2013-02-09 17:00:00,28.8,21.2,30.39,SSE,148,0.0,5.0,73,0.00,,---,0.00,VWS V14.01,2013-02-09 23:00:00,
2013-02-09 17:01:00,28.6,21.4,30.39,SSE,163,0.0,1.0,74,0.00,,---,0.00,VWS V14.01,2013-02-09 23:01:00,
2013-02-09 17:06:00,28.3,21.4,30.39,SSW,203,0.0,2.0,75,0.00,,---,0.00,VWS V14.01,2013-02-09 23:06:00,
2013-02-09 17:11:00,28.0,21.1,30.39,South,172,0.0,2.0,75,0.00,,---,0.00,VWS V14.01,2013-02-09 23:11:00,
2013-02-09 17:16:00,27.5,20.9,30.39,South,172,0.0,2.0,76,0.00,,---,0.00,VWS V14.01,2013-02-09 23:16:00,
2013-02-09 17:21:00,27.1,20.9,30.39,ESE,106,0.0,2.0,77,0.00,,---,0.00,VWS V14.01,2013-02-09 23:21:00,
2013-02-09 17:26:00,27.1,21.2,30.39,SSE,148,0.0,2.0,78,0.00,,---,0.00,VWS V14.01,2013-02-09 23:26:00,
2013-02-09 17:30:00,27.1,21.2,30.39,SSE,147,0.0,2.0,78,0.00,,---,0.00,VWS V14.01,2013-02-09 23:30:00,
2013-02-09 17:31:00,27.0,21.1,30.39,SSE,147,0.0,0.0,78,0.00,,---,0.00,VWS V14.01,2013-02-09 23:31:00,
2013-02-09 17:36:00,26.8,20.9,30.39,SE,146,0.0,0.0,78,0.00,,---,0.00,VWS V14.01,2013-02-09 23:36:00,
2013-02-09 17:41:00,26.6,21.0,30.39,SE,138,0.0,0.0,79,0.00,,---,0.00,VWS V14.01,2013-02-09 23:41:00,
2013-02-09 17:46:00,26.5,20.9,30.39,SE,144,0.0,1.0,79,0.00,,---,0.00,VWS V14.01,2013-02-09 23:46:00,
2013-02-09 17:51:00,26.5,21.2,30.39,SE,138,0.0,1.0,80,0.00,,---,0.00,VWS V14.01,2013-02-09 23:51:00,
2013-02-09 17:56:00,26.3,21.0,30.39,SE,137,1.0,1.0,80,0.00,,---,0.00,VWS V14.01,2013-02-09 23:56:00,
2013-02-09 18:00:00,26.2,20.9,30.39,SE,136,0.0,1.0,80,0.00,,---,0.00,VWS V14.01,2013-02-10 00:00:00,
2013-02-09 18:01:00,26.2,20.9,30.39,SE,124,0.0,1.0,80,0.00,,---,0.00,VWS V14.01,2013-02-10 00:01:00,
2013-02-09 18:06:00,25.8,20.5,30.39,SE,124,0.0,1.0,80,0.00,,---,0.00,VWS V14.01,2013-02-10 00:06:00,
2013-02-09 18:11:00,25.1,19.8,30.39,SE,124,0.0,1.0,80,0.00,,---,0.00,VWS V14.01,2013-02-10 00:11:00,
2013-02-09 18:16:00,24.8,20.1,30.39,SE,124,0.0,1.0,82,0.00,,---,0.00,VWS V14.01,2013-02-10 00:16:00,
2013-02-09 18:21:00,25.0,20.6,30.39,SE,124,0.0,1.0,83,0.00,,---,0.00,VWS V14.01,2013-02-10 00:21:00,
2013-02-09 18:26:00,25.1,20.7,30.39,SE,124,0.0,1.0,83,0.00,,---,0.00,VWS V14.01,2013-02-10 00:26:00,
2013-02-09 18:30:00,25.1,20.7,30.39,SE,124,0.0,1.0,83,0.00,,---,0.00,VWS V14.01,2013-02-10 00:30:00,
2013-02-09 18:31:00,25.0,20.9,30.39,SE,124,0.0,0.0,84,0.00,,---,0.00,VWS V14.01,2013-02-10 00:31:00,
2013-02-09 18:36:00,25.0,20.9,30.39,SE,137,0.0,1.0,84,0.00,,---,0.00,VWS V14.01,2013-02-10 00:36:00,
2013-02-09 18:41:00,24.8,20.7,30.38,SE,137,0.0,1.0,84,0.00,,---,0.00,VWS V14.01,2013-02-10 00:41:00,
2013-02-09 18:46:00,24.7,20.6,30.38,SE,137,0.0,1.0,84,0.00,,---,0.00,VWS V14.01,2013-02-10 00:46:00,
2013-02-09 18:51:00,24.6,20.5,30.38,SE,137,0.0,1.0,84,0.00,,---,0.00,VWS V14.01,2013-02-10 00:51:00,
2013-02-09 18:56:00,24.5,20.6,30.38,SE,136,0.0,1.0,85,0.00,,---,0.00,VWS V14.01,2013-02-10 00:56:00,
2013-02-09 19:00:00,24.5,20.6,30.38,SE,137,0.0,1.0,85,0.00,,---,0.00,VWS V14.01,2013-02-10 01:00:00,
2013-02-09 19:01:00,24.4,20.5,30.38,SE,137,0.0,0.0,85,0.00,,---,0.00,VWS V14.01,2013-02-10 01:01:00,
2013-02-09 19:06:00,24.2,20.4,30.38,ESE,122,0.0,1.0,85,0.00,,---,0.00,VWS V14.01,2013-02-10 01:06:00,
2013-02-09 19:11:00,24.0,20.4,30.37,ESE,123,0.0,1.0,86,0.00,,---,0.00,VWS V14.01,2013-02-10 01:11:00,
2013-02-09 19:16:00,24.0,20.7,30.37,ESE,117,0.0,2.0,87,0.00,,---,0.00,VWS V14.01,2013-02-10 01:16:00,
2013-02-09 19:21:00,24.1,20.8,30.38,ESE,115,0.0,2.0,87,0.00,,---,0.00,VWS V14.01,2013-02-10 01:21:00,
2013-02-09 19:26:00,24.1,21.1,30.38,SE,138,0.0,2.0,88,0.00,,---,0.00,VWS V14.01,2013-02-10 01:26:00,
2013-02-09 19:30:00,24.1,20.8,30.38,SE,138,0.0,2.0,87,0.00,,---,0.00,VWS V14.01,2013-02-10 01:30:00,
2013-02-09 19:31:00,24.1,20.8,30.38,SE,138,0.0,0.0,87,0.00,,---,0.00,VWS V14.01,2013-02-10 01:31:00,
2013-02-09 19:36:00,23.9,20.9,30.37,SE,138,0.0,0.0,88,0.00,,---,0.00,VWS V14.01,2013-02-10 01:36:00,
2013-02-09 19:41:00,24.0,21.0,30.37,SE,138,0.0,0.0,88,0.00,,---,0.00,VWS V14.01,2013-02-10 01:41:00,
2013-02-09 19:46:00,23.9,20.9,30.37,ESE,110,0.0,1.0,88,0.00,,---,0.00,VWS V14.01,2013-02-10 01:46:00,
2013-02-09 19:51:00,23.7,20.7,30.37,ESE,110,0.0,1.0,88,0.00,,---,0.00,VWS V14.01,2013-02-10 01:51:00,
2013-02-09 19:56:00,23.3,20.3,30.37,ESE,110,0.0,1.0,88,0.00,,---,0.00,VWS V14.01,2013-02-10 01:56:00,
2013-02-09 20:00:00,23.2,20.2,30.37,ESE,110,0.0,1.0,88,0.00,,---,0.00,VWS V14.01,2013-02-10 02:00:00,
2013-02-09 20:01:00,23.1,20.1,30.37,ESE,110,0.0,0.0,88,0.00,,---,0.00,VWS V14.01,2013-02-10 02:01:00,
2013-02-09 20:06:00,23.0,20.2,30.37,ESE,110,0.0,0.0,89,0.00,,---,0.00,VWS V14.01,2013-02-10 02:06:00,
2013-02-09 20:11:00,22.9,20.1,30.37,ESE,110,0.0,0.0,89,0.00,,---,0.00,VWS V14.01,2013-02-10 02:11:00,
2013-02-09 20:16:00,23.1,20.6,30.37,East,88,0.0,2.0,90,0.00,,---,0.00,VWS V14.01,2013-02-10 02:16:00,
2013-02-09 20:21:00,23.2,20.5,30.37,East,88,0.0,2.0,89,0.00,,---,0.00,VWS V14.01,2013-02-10 02:21:00,
2013-02-09 20:26:00,23.1,20.4,30.37,East,88,0.0,2.0,89,0.00,,---,0.00,VWS V14.01,2013-02-10 02:26:00,
2013-02-09 20:30:00,23.0,20.2,30.37,East,88,0.0,2.0,89,0.00,,---,0.00,VWS V14.01,2013-02-10 02:30:00,
2013-02-09 20:31:00,22.8,20.0,30.36,East,88,0.0,0.0,89,0.00,,---,0.00,VWS V14.01,2013-02-10 02:31:00,
2013-02-09 20:36:00,22.6,19.9,30.37,East,88,0.0,0.0,89,0.00,,---,0.00,VWS V14.01,2013-02-10 02:36:00,
2013-02-09 20:41:00,22.4,19.9,30.36,East,100,0.0,1.0,90,0.00,,---,0.00,VWS V14.01,2013-02-10 02:41:00,
2013-02-09 20:46:00,22.4,19.9,30.36,East,100,0.0,1.0,90,0.00,,---,0.00,VWS V14.01,2013-02-10 02:46:00,
2013-02-09 20:51:00,22.4,19.9,30.36,East,101,0.0,1.0,90,0.00,,---,0.00,VWS V14.01,2013-02-10 02:51:00,
2013-02-09 20:56:00,22.3,19.8,30.36,East,101,0.0,1.0,90,0.00,,---,0.00,VWS V14.01,2013-02-10 02:56:00,
2013-02-09 21:00:00,22.2,19.7,30.36,East,100,0.0,1.0,90,0.00,,---,0.00,VWS V14.01,2013-02-10 03:00:00,
2013-02-09 21:01:00,22.1,19.6,30.36,East,101,0.0,0.0,90,0.00,,---,0.00,VWS V14.01,2013-02-10 03:01:00,
2013-02-09 21:06:00,22.1,19.9,30.36,East,101,0.0,0.0,91,0.00,,---,0.00,VWS V14.01,2013-02-10 03:06:00,
2013-02-09 21:11:00,22.1,19.6,30.36,East,101,0.0,0.0,90,0.00,,---,0.00,VWS V14.01,2013-02-10 03:11:00,
2013-02-09 21:16:00,22.0,19.5,30.35,SE,145,0.0,0.0,90,0.00,,---,0.00,VWS V14.01,2013-02-10 03:16:00,
2013-02-09 21:21:00,22.1,19.9,30.35,ESE,117,0.0,1.0,91,0.00,,---,0.00,VWS V14.01,2013-02-10 03:21:00,
2013-02-09 21:26:00,22.0,19.5,30.35,ESE,117,0.0,1.0,90,0.00,,---,0.00,VWS V14.01,2013-02-10 03:26:00,
2013-02-09 21:30:00,21.9,19.4,30.35,ESE,117,0.0,1.0,90,0.00,,---,0.00,VWS V14.01,2013-02-10 03:30:00,
2013-02-09 21:31:00,21.8,19.3,30.35,ESE,117,0.0,0.0,90,0.00,,---,0.00,VWS V14.01,2013-02-10 03:31:00,
2013-02-09 21:36:00,21.8,19.6,30.35,ESE,117,0.0,0.0,91,0.00,,---,0.00,VWS V14.01,2013-02-10 03:36:00,
2013-02-09 21:41:00,21.9,19.7,30.35,ESE,117,0.0,0.0,91,0.00,,---,0.00,VWS V14.01,2013-02-10 03:41:00,
2013-02-09 21:46:00,21.7,19.5,30.34,ESE,117,0.0,0.0,91,0.00,,---,0.00,VWS V14.01,2013-02-10 03:46:00,
2013-02-09 21:51:00,21.5,19.3,30.34,ESE,117,0.0,1.0,91,0.00,,---,0.00,VWS V14.01,2013-02-10 03:51:00,
2013-02-09 21:56:00,21.5,19.3,30.34,ENE,68,0.0,2.0,91,0.00,,---,0.00,VWS V14.01,2013-02-10 03:56:00,
2013-02-09 22:00:00,21.4,19.2,30.34,ENE,68,0.0,2.0,91,0.00,,---,0.00,VWS V14.01,2013-02-10 04:00:00,
2013-02-09 22:01:00,21.5,19.5,30.34,ENE,74,0.0,1.0,92,0.00,,---,0.00,VWS V14.01,2013-02-10 04:01:00,
2013-02-09 22:06:00,21.6,19.6,30.34,ENE,74,0.0,1.0,92,0.00,,---,0.00,VWS V14.01,2013-02-10 04:06:00,
2013-02-09 22:11:00,21.7,19.7,30.34,ENE,74,0.0,1.0,92,0.00,,---,0.00,VWS V14.01,2013-02-10 04:11:00,
2013-02-09 22:16:00,21.4,19.2,30.34,ENE,74,0.0,1.0,91,0.00,,---,0.00,VWS V14.01,2013-02-10 04:16:00,
2013-02-09 22:21:00,21.2,19.2,30.34,ENE,75,0.0,1.0,92,0.00,,---,0.00,VWS V14.01,2013-02-10 04:21:00,
2013-02-09 22:26:00,21.0,19.0,30.34,ENE,75,0.0,1.0,92,0.00,,---,0.00,VWS V14.01,2013-02-10 04:26:00,
2013-02-09 22:30:00,20.9,19.0,30.34,ENE,75,0.0,1.0,92,0.00,,---,0.00,VWS V14.01,2013-02-10 04:30:00,
2013-02-09 22:31:00,20.8,18.9,30.34,ENE,75,0.0,0.0,92,0.00,,---,0.00,VWS V14.01,2013-02-10 04:31:00,
2013-02-09 22:36:00,20.9,19.2,30.34,ENE,75,0.0,0.0,93,0.00,,---,0.00,VWS V14.01,2013-02-10 04:36:00,
2013-02-09 22:41:00,20.9,19.2,30.34,ENE,75,0.0,0.0,93,0.00,,---,0.00,VWS V14.01,2013-02-10 04:41:00,
2013-02-09 22:46:00,20.9,19.2,30.34,ENE,75,0.0,0.0,93,0.00,,---,0.00,VWS V14.01,2013-02-10 04:46:00,
2013-02-09 22:51:00,20.8,19.1,30.33,ENE,75,0.0,0.0,93,0.00,,---,0.00,VWS V14.01,2013-02-10 04:51:00,
2013-02-09 22:56:00,20.7,19.0,30.33,ENE,75,0.0,0.0,93,0.00,,---,0.00,VWS V14.01,2013-02-10 04:56:00,
2013-02-09 23:00:00,20.7,19.0,30.33,ENE,75,0.0,0.0,93,0.00,,---,0.00,VWS V14.01,2013-02-10 05:00:00,
2013-02-09 23:05:00,20.6,18.9,30.33,ENE,75,0.0,0.0,93,0.00,,---,0.00,VWS V14.01,2013-02-10 05:05:00,
2013-02-09 23:10:00,20.6,18.9,30.33,ENE,75,0.0,0.0,93,0.00,,---,0.00,VWS V14.01,2013-02-10 05:10:00,
2013-02-09 23:15:00,20.6,18.9,30.33,ENE,75,0.0,0.0,93,0.00,,---,0.00,VWS V14.01,2013-02-10 05:15:00,
2013-02-09 23:20:00,20.6,19.1,30.32,ENE,75,0.0,1.0,94,0.00,,---,0.00,VWS V14.01,2013-02-10 05:20:00,
2013-02-09 23:25:00,20.5,18.8,30.32,ENE,75,0.0,1.0,93,0.00,,---,0.00,VWS V14.01,2013-02-10 05:25:00,
2013-02-09 23:30:00,20.3,18.6,30.32,ENE,75,0.0,0.0,93,0.00,,---,0.00,VWS V14.01,2013-02-10 05:30:00,
2013-02-09 23:35:00,20.2,18.5,30.32,ENE,75,0.0,0.0,93,0.00,,---,0.00,VWS V14.01,2013-02-10 05:35:00,
2013-02-09 23:40:00,20.4,19.0,30.32,ENE,75,0.0,0.0,94,0.00,,---,0.00,VWS V14.01,2013-02-10 05:40:00,
2013-02-09 23:45:00,20.6,19.1,30.31,ENE,75,0.0,0.0,94,0.00,,---,0.00,VWS V14.01,2013-02-10 05:45:00,
2013-02-09 23:50:00,20.4,19.0,30.31,ENE,75,0.0,0.0,94,0.00,,---,0.00,VWS V14.01,2013-02-10 05:50:00,
2013-02-09 23:55:00,20.2,18.8,30.31,ENE,75,0.0,0.0,94,0.00,,---,0.00,VWS V14.01,2013-02-10 05:55:00,